Regional Weather Roundup
Issued by NWS

Home | Current Version | Previous Version | Text Only | Print | Product List | Glossary On
Versions: 1 2 3 4 5 6 7 8 9 10 11 12 13 14 15 16 17 18 19 20 21 22 23 24 25 26 27 28 29 30 31 32 33 34 35 36 37 38 39 40 41 42 43 44 45 46 47 48 49 50
000
ASUS45 KBOU 230707
RWRCO

WEATHER ROUNDUP FOR COLORADO
NATIONAL WEATHER SERVICE DENVER/BOULDER CO
100 AM MDT SAT MAY 23 2015

NOTE: "FAIR" INDICATES FEW OR NO CLOUDS BELOW 12000 FEET WITH NO
SIGNIFICANT WEATHER AND/OR OBSTRUCTIONS TO VISIBILITY.

COZ001>005-013-030-031-230800-
...NORTHWEST COLORADO...

CITY           SKY/WX    TMP DP  RH WIND       PRES   REMARKS
CRAIG          CLOUDY    44  39  82 SE6       30.04R
HAYDEN         CLOUDY    43  37  81 SE9       30.06S
MEEKER         MOCLDY    43  40  89 MISG      30.05F
MOUNT WERNER   NOT AVBL
STEAMBOAT SPGS CLOUDY    40  37  87 NE7       30.07S
WALDEN         CLOUDY    37  34  87 S6        30.07F
$$

COZ006>008-011-230800-
...WEST CENTRAL VALLEYS...

CITY           SKY/WX    TMP DP  RH WIND       PRES   REMARKS
GRAND JUNCTION CLOUDY    49  46  90 CALM      29.96S
MONTROSE       MOCLDY    52  36  54 S10G21    30.02R
EAGLE          CLOUDY    45  45 100 NE5       30.10R
RIFLE          MOCLDY    46  42  86 SE5       30.02S
DELTA          MOCLDY    51  42  71 MISG      29.98F
NUCLA          CLOUDY    46  37  71 S7        30.04R
$$

COZ017>023-064>068-230800-
...SOUTHWEST COLORADO...

CITY           SKY/WX    TMP DP  RH WIND       PRES   REMARKS
DURANGO        CLOUDY    47  39  74 VRB3      30.02F
CORTEZ         CLOUDY    50  33  52 N3        30.02S
PAGOSA SPRINGS CLOUDY    44  38  79 CALM      30.07S
TELLURIDE      CLOUDY    36  35  96 SE3       30.15S
WOLF CREEK PAS NOT AVBL
$$

COZ009-010-012-014-032>034-037-058>063-230800-
...CENTRAL COLORADO...

CITY           SKY/WX    TMP DP  RH WIND       PRES   REMARKS
ASPEN          LGT RAIN  43  37  79 SE3       30.09R
BUENA VISTA    CLOUDY    46  34  64 CALM      30.10S
COPPER MTN     HVY SNOW  34  30  86 W6        30.23S VSB 1/4 WCI  29
BERTHOUD PASS  CLOUDY    27  18  69 SE15      30.26R WCI  15
COTTONWOOD PAS CLOUDY    41  32  70 N3        30.16F
GUNNISON       CLOUDY    39  34  81 CALM      30.14S
KREMMLING      MOCLDY    41  36  81 CALM      30.11F
LEADVILLE      LGT SNOW  31  31 100 NE10      30.15F FOG     WCI  22
MONARCH PASS   SNOW      30  28  93 MISG      30.32F VSB<1/4
SALIDA         CLOUDY    49  37  62 SE7       30.15S
SUNLIGHT       CLOUDY    34  32  93 CALM      30.20S
WILKERSON PASS CLOUDY    32  30  93 SW3       30.24R
$$

COZ069>075-230800-
...SAN LUIS VALLEY/SANGRE DE CRISTO MOUNTAINS...

CITY           SKY/WX    TMP DP  RH WIND       PRES   REMARKS
ALAMOSA        PTCLDY    45  37  73 CALM      30.06S
LA VETA PASS   PTCLDY   N/A N/A N/A MISG      30.18S
SAGUACHE       MOCLDY    41  36  81 SE6       30.09F
$$

COZ035-036-038>040-230800-
...NORTHERN COLORADO FRONT RANGE...

CITY           SKY/WX    TMP DP  RH WIND       PRES   REMARKS
DENVER INTL AP CLOUDY    48  46  93 CALM      30.05S
DMNS CITY PARK   N/A     49  48  97 NE3       30.05S
AURORA         CLOUDY    47  47 100 SW2       30.07S
FRONT RANGE AP NOT AVBL
ERIE MUNI ARPT CLOUDY    49  48  97 CALM      30.06S
BOULDER MUN AP CLOUDY    48  48 100 CALM      30.05F
CENTENNIAL     CLOUDY    48  46  93 CALM      30.06S
BROOMFIELD     CLOUDY    46  46 100 CALM      30.07S
FORT COLLINS   CLOUDY    48  46  93 SE7       30.07R
LONGMONT       CLOUDY    51  49  92 CALM      30.07S
$$

COZ041-046-047-076>085-087-088-230800-
...PIKES PEAK/PALMER DIVIDE AND SOUTHERN FOOTHILLS...

CITY           SKY/WX    TMP DP  RH WIND       PRES   REMARKS
COLO. SPRINGS  CLOUDY    49  44  83 N5        30.08R THUNDER
A. F. ACADEMY  CLOUDY    47  46  93 N10       30.07S
ELLICOTT       NOT AVBL
FALCON         CLOUDY    45  44  97 N9        30.10R
FORT CARSON    TSTM      48  46  93 N6        30.06R FOG
LIMON          CLOUDY    49  47  93 N8        30.03S
MONUMENT HILL  NOT AVBL
TRINIDAD       PTCLDY    57  46  66 S21       30.01F
$$

COZ042>045-048>051-090-091-230800-
...NORTHEAST COLORADO...

CITY           SKY/WX    TMP DP  RH WIND       PRES   REMARKS
GREELEY ARPT   CLOUDY    48  45  87 SE3       30.06S
AKRON          CLOUDY    50  50 100 SE14      30.04R
BURLINGTON     FOG       54  53  97 SE17G29   30.01R VSB 1
WRAY           HVY RAIN N/A N/A N/A SE10      30.07R
STERLING       FOG       48  48 100 NE6       30.04S VSB 1
HOLYOKE        NOT AVBL
FORT MORGAN    FOG       48  47  95 NE9       30.04F VSB 1
$$

COZ086-089-092>099-230800-
...SOUTHEAST COLORADO...

CITY           SKY/WX    TMP DP  RH WIND       PRES   REMARKS
PUEBLO         CLOUDY    53  47  79 N23G30    29.96F
LA JUNTA       PTCLDY    58  48  69 W9        29.94R
LAMAR          MOCLDY    56  53  90 NE9       29.95S
SPRINGFIELD      N/A     56  53  90 S23G30    29.99F
$$


USA.gov is the U.S. government's official web portal to all federal, state and local government web resources and services.